Regional Weather Roundup
Issued by NWS Upton, NY

Current Version | Previous Version | Graphics & Text | Print | Product List | Glossary Off
Versions: 1 2 3 4 5 6 7 8 9 10 11 12 13 14 15 16 17 18 19 20 21 22 23 24 25 26 27 28 29 30 31 32 33 34 35 36 37 38 39 40 41 42 43 44 45 46 47 48 49 50

000
ASUS41 KOKX 221305
RWROKX

REGIONAL WEATHER ROUNDUP
NATIONAL WEATHER SERVICE NEW YORK NY
900 AM EDT MON SEP 22 2014

NOTE: "FAIR" INDICATES FEW OR NO CLOUDS BELOW 12,000 FEET WITH NO
SIGNIFICANT WEATHER AND/OR OBSTRUCTIONS TO VISIBILITY.

NYZ071-072-176-178-NJZ106-104-221400-
NEW YORK CITY METRO AREA


CITY           SKY/WX    TMP DP  RH WIND       PRES   REMARKS
CENTRAL PARK   SUNNY     65  51  60 VRB5G18   29.86R
LAGUARDIA APRT MOSUNNY   66  52  60 W14G24    29.83R
KENNEDY INTL   MOSUNNY   67  51  56 W13G22    29.84R
NEWARK/LIBERTY MOSUNNY   67  52  58 W16G25    29.84R
BRNX BOT. GARD   N/A     64  52  63 NW7       29.85R
TETERBORO      SUNNY     66  52  60 NW13G20   29.83R
$$

NYZ177-179-078>081-221400-
LONG ISLAND NEW YORK

CITY           SKY/WX    TMP DP  RH WIND       PRES   REMARKS
FARMINGDALE    SUNNY     67  52  58 W15G22    29.83R
ISLIP          MOSUNNY   67  54  63 W12       29.79R
SHIRLEY        SUNNY     68  55  63 W15       29.81R
WESTHAMPTON    SUNNY     69  55  60 W15G21    29.81R
MONTAUK POINT    N/A     68  57  68 W14G22    29.78R
$$

NYZ052-065-067-221400-
HUDSON VALLEY

CITY           SKY/WX    TMP DP  RH WIND       PRES   REMARKS
WHITE PLAINS   MOSUNNY   63  52  67 W16G25    29.81R
NEWBURGH       MOSUNNY   63  55  77 W14G22    29.83
MONTGOMERY     SUNNY     63  52  67 NW12G22   29.83R
POUGHKEEPSIE   SUNNY     64  54  69 S6        29.80R
ALBANY         MOSUNNY   58  46  64 W21G36    29.81R
$$

NJZ001-105-106-008-010-013-015-019>022-104-221400-
NEW JERSEY

CITY           SKY/WX    TMP DP  RH WIND       PRES   REMARKS
NEWARK/LIBERTY MOSUNNY   67  52  58 W16G25    29.84R
TETERBORO      SUNNY     66  52  60 NW13G20   29.83R
CALDWELL       SUNNY     65  50  58 NW13      29.85R
MORRISTOWN     MOSUNNY   66  52  59 NW18G24   29.85R
SOMERVILLE     SUNNY     66  51  58 VRB7G17   29.85R
LINDEN         FAIR      69  55  59 NW14      29.86R
SUSSEX         MOSUNNY   63  52  67 NW7G16    29.86R
ANDOVER          N/A     62  52  69 NW7       29.87R
TRENTON        SUNNY     65  49  56 W10       29.87R
MILLVILLE      SUNNY     66  51  58 W12       29.91R
ATLANTIC CITY  SUNNY     65  52  62 W13G22    29.90R
WRIGHTSTOWN    SUNNY     66  52  60 NW12      29.87R
TOMS RIVER     SUNNY     66  52  59 NW12G17   29.88R
BELMAR         SUNNY     64  52  63 W12G21    29.87R
$$

PAZ047>061-062-071-221400-
EASTERN PENNSYLVANIA

CITY           SKY/WX    TMP DP  RH WIND       PRES   REMARKS
PHILADELPHIA   MOSUNNY   66  48  52 W17       29.90R
ALLENTOWN      MOSUNNY   64  50  60 W7G20     29.89R
SCRANTON       CLOUDY    57  48  72 NW13      29.92R
$$

CTZ002-004>006-009-010-012-RIZ004-006-007-MAZ004-011-015-221400-
SOUTHERN NEW ENGLAND
 IN CT

CITY           SKY/WX    TMP DP  RH WIND       PRES   REMARKS
BRADLEY INTL   PTSUNNY   65  54  67 SW6       29.75R
HARTFORD       PTSUNNY   65  53  65 SW10      29.77R
DANBURY        SUNNY     63  53  70 W7        29.80R
WTRBRY/OXFORD  SUNNY     61  54  77 W9G17     29.80R
BRIDGEPORT     SUNNY     66  55  67 W14       29.79R
MERIDEN        SUNNY     65  54  67 W9        29.78R
NEW HAVEN      SUNNY     67  55  65 W8        29.78R
CHESTER        FAIR      63  57  82 W8        29.77R
GROTON         SUNNY     66  57  72 W7        29.76R
WILLIMANTIC    SUNNY     65  56  72 VRB6      29.76R

 IN RI

CITY           SKY/WX    TMP DP  RH WIND       PRES   REMARKS
PROVIDENCE     MOSUNNY   66  57  72 W13G20    29.74R
BLOCK ISLAND   SUNNY     68  55  64 W14G23    29.77R
WESTERLY       SUNNY     67  55  65 VRB6      29.76R

 IN MA

CITY           SKY/WX    TMP DP  RH WIND       PRES   REMARKS
BOSTON         MOSUNNY   68  54  60 W15G23    29.69R
WORCESTER      SUNNY     60  51  72 W17G24    29.73R
WESTFIELD      CLOUDY    64  51  62 NW6       29.75R
PROVINCETOWN   SUNNY     66  61  82 W14       29.70R
NANTUCKET      SUNNY     70  62  76 W13       29.73R
$$

ANZ330-335-338-340-345-350-353-355-221400-
COASTAL MARINE OBSERVATIONS


STATION/POSITION TIME  SKY/WX   TEMP    WIND        PRES    VSBY  WAVE
                                AIR SEA DIR/SP/G                  HT/PER
                 (UTC)          (F)     (DEG/KT/KT) (MB)    (MI)  (FT/S)
NY HARB ENTRANCE 1300            66 70  280/ 17/ 21 1010.6          5/10
4S FIRE IS       1300               70                N/A           7/11
20S FIRE ISLAND  1300            67 68  290/ 19/ 25 1009.4          7/10
23SW MTP         1300                                 N/A           8/11
HUDSON CANYON    1300            69 70  300/ 17/ 21 1010.1          9/10
EXECUTION ROCKS  1300            67 70  290/ 16/ 21   N/A
WESTERN LI SOUND 1300            65     270/ 16/ 19   N/A           1/ 3
CENTRAL LI SOUND 1200            66 70  270/ 19/ 23   N/A           3/ 4
EASTERN LI SOUND 1200            68 68  280/ 17/ 23   N/A
ROBBINS REEF     1300            64     290/ 18/ 22 1009.1
$$


>>>>>>>>>>>>>>>>>>>>>>>>>>>> KEY <<<<<<<<<<<<<<<<<<<<<<<<<<<
>                                                          <
>     SKY/WX - SKY CONDITION/PRESENT WEATHER               <
>     TMP    - TEMPERATURE IN FAHRENHEIT                   <
>     DP     - DEWPOINT IN FAHRENHEIT                      <
>     RH     - RELATIVE HUMIDITY IN PERCENT                <
>     WIND   - DIRECTION AND SPEED IN MPH                  <
>     PRES   - MEAN SEA LEVEL PRESSURE IN INCHES OF HG     <
>     WCI    - WIND CHILL INDEX                            <
>     VSB    - VISIBILITY IN MILES                         <
>     HX     - HEAT INDEX                                  <
>     TC     - TEMPERATURE IN CELSIUS                      <
>     VRB    - VARIABLE WIND DIRECTION                     <
>                                                          <
>>>>>>>>>>>>>>>>>>>>>>>>>>>> KEY <<<<<<<<<<<<<<<<<<<<<<<<<<<





USA.gov is the U.S. government's official web portal to all federal, state and local government web resources and services.